Starlink 31219

operational
NORAD ID: 58866 Int'l Des: 2024-019 Owner: SPXS Country: US Constellation: starlink
LEOCIRCULAR

关于 Starlink 31219

正在加载描述...

实时位置

正在加载3D地球...

即将过境

高度历史

Altitude vs Time

uPlot chart will show altitude changes over time

两行轨道根数

1 58866U 24019P 25307.80577595 -.00004567 00000-0 -15653-3 0 9999
2 58866 43.0005 239.5496 0000932 242.1147 117.9610 15.27580174 99812
Epoch: Nov 3, 2025 • Age: 7 hours

当前状态

高度 482.1 km
速度 7.63 km/s
星下点 5.32°N, 26.88°W
发射日期 Jan 29, 2024
运行时间 1.7 years
类型 internet

技术详情

分类 Payload
质量 730.00 kg
干质量 700.00 kg
总质量 730.00 kg
长度 0.30 m
直径 4.10 m
跨度 29.00 m
形状 Box + pan
制造商 SPXS
平台类型 Starlink V2M
阶段状态 In Orbit
所有者/国家 SPXS/US

大型星座

Loading constellations...